^^
Saratoga-Weather Station Historical Data
Daily Summary for March 19, 2020 Units:  English    Metric   Both
Daily Weekly Monthly Yearly Custom
  High: Low: Average:
Temperature: 79.7 °F 49.3 °F 66.9 °F
Dew Point: 53.4 °F 38.8 °F 45.7 °F
Humidity: 78% 27% 50%
Wind Speed: 8.9mph 0mph 1.8mph
Wind Gust: 12mph - -
Wind- - WSW
Pressure: 30.2 in 30.1 in -
Precipitation: 0 in    
Historical Graphs
 
 
Tabular Data for March 19, 2020
Time Temperature Dew Point Pressure Wind Wind Speed Wind Gust Humidity Rainfall Rate (Hourly) solar
00:01 62.4 °F 51.8 °F 30.2 in WNW 2.9 mph 5 mph 68% 0 in 0 W/m2
00:06 62.2 °F 51.1 °F 30.2 in West 2.9 mph 6 mph 67% 0 in 0 W/m2
00:11 62.2 °F 50.7 °F 30.2 in West 2 mph 4 mph 66% 0 in 0 W/m2
00:16 62.4 °F 50.5 °F 30.2 in WNW 2.9 mph 4 mph 65% 0 in 0 W/m2
00:21 62.4 °F 50 °F 30.2 in WSW 2.9 mph 5 mph 64% 0 in 0 W/m2
00:26 62.4 °F 49.6 °F 30.2 in West 2.9 mph 6 mph 63% 0 in 0 W/m2
00:31 62.4 °F 49.3 °F 30.2 in West 2.9 mph 6 mph 62% 0 in 0 W/m2
00:36 62.4 °F 48.7 °F 30.2 in West 2.9 mph 4 mph 61% 0 in 0 W/m2
00:41 62.2 °F 48.6 °F 30.2 in WSW 2.9 mph 4 mph 61% 0 in 0 W/m2
00:46 62.2 °F 48.6 °F 30.2 in WNW 2 mph 4 mph 61% 0 in 0 W/m2
00:51 62.1 °F 48.4 °F 30.2 in West 4 mph 5 mph 61% 0 in 0 W/m2
00:56 61.9 °F 48.2 °F 30.2 in West 2.9 mph 4 mph 61% 0 in 0 W/m2
01:01 61.9 °F 47.5 °F 30.2 in WNW 2.9 mph 4 mph 59% 0 in 0 W/m2
01:07 61.9 °F 47.8 °F 30.2 in West 2.9 mph 6 mph 60% 0 in 0 W/m2
01:12 61.7 °F 47.3 °F 30.2 in West 4 mph 4 mph 59% 0 in 0 W/m2
01:17 61.5 °F 46.6 °F 30.2 in West 0.9 mph 1 mph 58% 0 in 0 W/m2
01:22 61.3 °F 47.3 °F 30.2 in Calm     60% 0 in 0 W/m2
01:27 61 °F 46.6 °F 30.2 in Calm   2 mph 59% 0 in 0 W/m2
01:32 60.4 °F 46.9 °F 30.2 in WSW 0.9 mph 1 mph 61% 0 in 0 W/m2
01:37 60.1 °F 46.6 °F 30.2 in Calm     61% 0 in 0 W/m2
01:42 59.5 °F 46.9 °F 30.2 in Calm     63% 0 in 0 W/m2
01:47 59.2 °F 46.2 °F 30.2 in Calm     62% 0 in 0 W/m2
01:52 58.8 °F 46.6 °F 30.2 in Calm     64% 0 in 0 W/m2
01:57 58.3 °F 46.2 °F 30.2 in WSW 0.9 mph 2 mph 64% 0 in 0 W/m2
02:02 57.9 °F 46.2 °F 30.2 in Calm     65% 0 in 0 W/m2
02:07 57.7 °F 46.4 °F 30.2 in Calm   2 mph 66% 0 in 0 W/m2
02:12 57.6 °F 46.2 °F 30.2 in WSW 0.9 mph 1 mph 66% 0 in 0 W/m2
02:17 57.2 °F 45.9 °F 30.2 in Calm   2 mph 66% 0 in 0 W/m2
02:22 56.8 °F 45.7 °F 30.2 in WSW 2 mph 2 mph 66% 0 in 0 W/m2
02:27 56.5 °F 45.3 °F 30.2 in Calm     66% 0 in 0 W/m2
02:32 56.3 °F 45.5 °F 30.2 in Calm     67% 0 in 0 W/m2
02:37 55.9 °F 44.8 °F 30.2 in Calm   1 mph 66% 0 in 0 W/m2
02:42 55.9 °F 44.8 °F 30.2 in WSW 2 mph 2 mph 66% 0 in 0 W/m2
02:47 55.8 °F 43.7 °F 30.2 in West 2 mph 3 mph 64% 0 in 0 W/m2
02:52 56.3 °F 43.5 °F 30.2 in Calm   2 mph 62% 0 in 0 W/m2
02:57 56.5 °F 43.7 °F 30.2 in Calm     62% 0 in 0 W/m2
03:02 56.5 °F 44.1 °F 30.2 in Calm   1 mph 63% 0 in 0 W/m2
03:07 56.5 °F 44.4 °F 30.2 in Calm     64% 0 in 0 W/m2
03:12 56.1 °F 44.1 °F 30.2 in Calm     64% 0 in 0 W/m2
03:17 55.8 °F 44.2 °F 30.2 in Calm   1 mph 65% 0 in 0 W/m2
03:22 55.4 °F 44.2 °F 30.2 in Calm     66% 0 in 0 W/m2
03:27 55 °F 43.9 °F 30.2 in Calm   1 mph 66% 0 in 0 W/m2
03:32 54.9 °F 44.1 °F 30.2 in Calm   1 mph 67% 0 in 0 W/m2
03:37 54.5 °F 43.7 °F 30.2 in West 0.9 mph 2 mph 67% 0 in 0 W/m2
03:42 54.3 °F 43.5 °F 30.2 in Calm     67% 0 in 0 W/m2
03:47 54 °F 43.7 °F 30.2 in Calm   2 mph 68% 0 in 0 W/m2
03:52 53.8 °F 43.5 °F 30.2 in Calm     68% 0 in 0 W/m2
03:57 53.4 °F 43.5 °F 30.2 in Calm     69% 0 in 0 W/m2
04:02 53.2 °F 43.7 °F 30.2 in Calm   2 mph 70% 0 in 0 W/m2
04:07 52.9 °F 43.3 °F 30.2 in Calm     70% 0 in 0 W/m2
04:12 52.9 °F 43.3 °F 30.2 in Calm   2 mph 70% 0 in 0 W/m2
04:17 52.7 °F 43.2 °F 30.2 in Calm   1 mph 70% 0 in 0 W/m2
04:22 52.5 °F 43 °F 30.2 in Calm     70% 0 in 0 W/m2
04:27 52.3 °F 43.2 °F 30.2 in Calm     71% 0 in 0 W/m2
04:32 52.2 °F 43 °F 30.2 in Calm     71% 0 in 0 W/m2
04:37 52 °F 42.8 °F 30.2 in Calm     71% 0 in 0 W/m2
04:42 51.6 °F 42.4 °F 30.2 in Calm     71% 0 in 0 W/m2
04:47 51.6 °F 43 °F 30.2 in Calm     72% 0 in 0 W/m2
04:52 51.4 °F 42.8 °F 30.2 in Calm     72% 0 in 0 W/m2
04:57 51.4 °F 42.8 °F 30.2 in Calm     72% 0 in 0 W/m2
05:02 51.3 °F 42.6 °F 30.2 in Calm     72% 0 in 0 W/m2
05:07 51.1 °F 42.4 °F 30.2 in Calm     72% 0 in 0 W/m2
05:12 50.7 °F 42.1 °F 30.2 in Calm     72% 0 in 0 W/m2
05:17 50.5 °F 42.3 °F 30.2 in Calm     73% 0 in 0 W/m2
05:22 50.4 °F 42.1 °F 30.2 in Calm     73% 0 in 0 W/m2
05:27 50.2 °F 41.9 °F 30.2 in Calm     73% 0 in 0 W/m2
05:32 50 °F 41.7 °F 30.2 in Calm     73% 0 in 0 W/m2
05:37 49.6 °F 41.7 °F 30.2 in Calm     74% 0 in 0 W/m2
05:43 49.6 °F 41.7 °F 30.2 in Calm     74% 0 in 0 W/m2
05:48 49.5 °F 41.5 °F 30.2 in Calm   2 mph 74% 0 in 5 W/m2
05:53 49.5 °F 41.5 °F 30.2 in Calm     74% 0 in 7 W/m2
05:58 49.3 °F 41.4 °F 30.2 in Calm   2 mph 74% 0 in 9 W/m2
06:03 49.3 °F 41.4 °F 30.2 in Calm     74% 0 in 12 W/m2
06:08 49.3 °F 41.7 °F 30.2 in Calm   1 mph 75% 0 in 14 W/m2
06:13 49.5 °F 41.9 °F 30.2 in Calm   1 mph 75% 0 in 16 W/m2
06:18 49.5 °F 41.9 °F 30.2 in Calm     75% 0 in 18 W/m2
06:23 49.5 °F 42.3 °F 30.2 in Calm     76% 0 in 21 W/m2
06:28 49.3 °F 42.1 °F 30.2 in Calm     76% 0 in 23 W/m2
06:33 49.3 °F 42.4 °F 30.2 in Calm     77% 0 in 25 W/m2
06:38 49.5 °F 42.6 °F 30.2 in Calm     77% 0 in 25 W/m2
06:43 49.5 °F 42.6 °F 30.2 in Calm     77% 0 in 26 W/m2
06:48 49.6 °F 42.8 °F 30.2 in Calm     77% 0 in 28 W/m2
06:53 49.8 °F 43.2 °F 30.2 in Calm     78% 0 in 28 W/m2
06:58 49.8 °F 43.2 °F 30.2 in Calm     78% 0 in 30 W/m2
07:03 50 °F 43.3 °F 30.2 in Calm     78% 0 in 32 W/m2
07:08 50.2 °F 43.3 °F 30.2 in Calm   1 mph 77% 0 in 32 W/m2
07:13 50.5 °F 43.5 °F 30.2 in Calm   1 mph 77% 0 in 33 W/m2
07:18 50.7 °F 43.5 °F 30.2 in Calm     76% 0 in 33 W/m2
07:23 51.1 °F 43.7 °F 30.2 in Calm     76% 0 in 33 W/m2
07:28 51.3 °F 43.9 °F 30.2 in Calm     76% 0 in 35 W/m2
07:33 51.6 °F 44.2 °F 30.2 in Calm   1 mph 76% 0 in 35 W/m2
07:38 52 °F 44.2 °F 30.2 in Calm   1 mph 75% 0 in 37 W/m2
07:43 52.5 °F 44.4 °F 30.2 in Calm   2 mph 74% 0 in 39 W/m2
07:48 53.1 °F 44.6 °F 30.2 in Calm     73% 0 in 255 W/m2
07:53 53.6 °F 44.8 °F 30.2 in Calm   2 mph 72% 0 in 271 W/m2
07:58 54.7 °F 45.5 °F 30.2 in Calm   1 mph 71% 0 in 281 W/m2
08:03 55.8 °F 45.7 °F 30.2 in Calm     69% 0 in 297 W/m2
08:08 57 °F 46.2 °F 30.2 in WSW 1 mph 1 mph 67% 0 in 311 W/m2
08:13 58.3 °F 46.6 °F 30.2 in Calm     65% 0 in 323 W/m2
08:18 59.2 °F 46.9 °F 30.2 in Calm     64% 0 in 338 W/m2
08:23 60.3 °F 47.7 °F 30.2 in Calm   1 mph 63% 0 in 350 W/m2
08:28 61.2 °F 47.7 °F 30.2 in Calm   1 mph 61% 0 in 364 W/m2
08:33 61.9 °F 47.5 °F 30.2 in WSW 0.9 mph 1 mph 59% 0 in 376 W/m2
08:38 61.9 °F 46.9 °F 30.2 in WNW 0.9 mph 1 mph 58% 0 in 388 W/m2
08:43 62.4 °F 46.9 °F 30.2 in Calm   1 mph 57% 0 in 399 W/m2
08:48 63 °F 46.6 °F 30.2 in Calm   2 mph 55% 0 in 410 W/m2
08:53 63.3 °F 45.9 °F 30.2 in Calm   1 mph 53% 0 in 424 W/m2
08:58 63.3 °F 45.9 °F 30.2 in Calm   2 mph 53% 0 in 438 W/m2
09:03 63.5 °F 45.5 °F 30.2 in Calm   1 mph 52% 0 in 448 W/m2
09:08 63.3 °F 45.3 °F 30.2 in NE 2 mph 4 mph 52% 0 in 459 W/m2
09:13 63.7 °F 45.7 °F 30.2 in Calm   3 mph 52% 0 in 473 W/m2
09:18 64.2 °F 46.2 °F 30.2 in ENE 0.9 mph 2 mph 52% 0 in 485 W/m2
09:23 64.6 °F 46 °F 30.2 in Calm   1 mph 51% 0 in 496 W/m2
09:28 64.9 °F 46.4 °F 30.2 in Calm   2 mph 51% 0 in 504 W/m2
09:33 65.1 °F 46 °F 30.2 in Calm   2 mph 50% 0 in 520 W/m2
09:38 65.5 °F 47.5 °F 30.2 in ESE 0.9 mph 2 mph 52% 0 in 534 W/m2
09:43 66 °F 46.8 °F 30.2 in ENE 2 mph 2 mph 50% 0 in 545 W/m2
09:48 66.4 °F 47.1 °F 30.2 in East 0.9 mph 2 mph 50% 0 in 561 W/m2
09:53 66.7 °F 47.5 °F 30.2 in Calm   2 mph 50% 0 in 570 W/m2
09:58 67.3 °F 48 °F 30.2 in ENE 2 mph 3 mph 50% 0 in 582 W/m2
10:03 67.3 °F 46.9 °F 30.2 in ENE 2.9 mph 3 mph 48% 0 in 594 W/m2
10:08 67.3 °F 46.9 °F 30.2 in SE 0.9 mph 3 mph 48% 0 in 605 W/m2
10:13 67.5 °F 46.6 °F 30.2 in NNW 0.9 mph 3 mph 47% 0 in 608 W/m2
10:18 67.5 °F 46.6 °F 30.2 in East 2 mph 4 mph 47% 0 in 54 W/m2
10:23 67.6 °F 46 °F 30.2 in Calm   3 mph 46% 0 in 636 W/m2
10:29 67.8 °F 47.5 °F 30.2 in North 0.9 mph 2 mph 48% 0 in 645 W/m2
10:34 68.2 °F 46 °F 30.2 in North 2 mph 4 mph 45% 0 in 656 W/m2
10:39 68 °F 46.4 °F 30.2 in East 0.9 mph 4 mph 46% 0 in 666 W/m2
10:44 68.2 °F 46 °F 30.2 in ENE 2 mph 3 mph 45% 0 in 673 W/m2
10:49 68.5 °F 46.9 °F 30.2 in East 2 mph 3 mph 46% 0 in 684 W/m2
10:54 69.3 °F 46.4 °F 30.2 in NNE 2 mph 2 mph 44% 0 in 696 W/m2
10:59 69.6 °F 45.5 °F 30.2 in East 2 mph 6 mph 42% 0 in 703 W/m2
11:04 69.6 °F 46.2 °F 30.2 in ESE 2 mph 3 mph 43% 0 in 712 W/m2
11:09 70.3 °F 46.2 °F 30.2 in SE 2.9 mph 4 mph 42% 0 in 719 W/m2
11:14 70.9 °F 45.3 °F 30.2 in ESE 0.9 mph 3 mph 40% 0 in 729 W/m2
11:19 71.4 °F 44.4 °F 30.2 in ESE 2.9 mph 4 mph 38% 0 in 738 W/m2
11:24 71.4 °F 44.4 °F 30.2 in NE 4.9 mph 5 mph 38% 0 in 749 W/m2
11:29 71.4 °F 43.2 °F 30.2 in NW 0.9 mph 4 mph 36% 0 in 752 W/m2
11:34 71.4 °F 42.3 °F 30.2 in West 0.9 mph 3 mph 35% 0 in 754 W/m2
11:39 71.8 °F 42.6 °F 30.2 in Calm   1 mph 35% 0 in 765 W/m2
11:44 72.1 °F 42.3 °F 30.2 in WNW 2 mph 6 mph 34% 0 in 768 W/m2
11:49 72.1 °F 43 °F 30.2 in ENE 2.9 mph 8 mph 35% 0 in 777 W/m2
11:54 72.3 °F 39.9 °F 30.2 in WNW 2 mph 3 mph 31% 0 in 775 W/m2
11:59 72.3 °F 40.8 °F 30.2 in NE 2 mph 4 mph 32% 0 in 784 W/m2
12:04 72.7 °F 41.9 °F 30.1 in West 2 mph 2 mph 33% 0 in 789 W/m2
12:09 72.9 °F 42.1 °F 30.1 in Calm   2 mph 33% 0 in 789 W/m2
12:14 73 °F 42.3 °F 30.1 in WSW 2 mph 3 mph 33% 0 in 796 W/m2
12:19 73.2 °F 44.6 °F 30.1 in WSW 0.9 mph 2 mph 36% 0 in 802 W/m2
12:24 73.8 °F 42.8 °F 30.1 in SSE 0.9 mph 2 mph 33% 0 in 805 W/m2
12:29 73.8 °F 41.2 °F 30.1 in NNE 0.9 mph 3 mph 31% 0 in 802 W/m2
12:34 73.9 °F 43 °F 30.1 in East 0.9 mph 3 mph 33% 0 in 805 W/m2
12:39 74.1 °F 43.9 °F 30.1 in Calm   2 mph 34% 0 in 809 W/m2
12:44 74.1 °F 43.9 °F 30.1 in SSE 0.9 mph 4 mph 34% 0 in 814 W/m2
12:49 74.5 °F 41 °F 30.1 in NNW 0.9 mph 3 mph 30% 0 in 819 W/m2
12:54 74.1 °F 41.5 °F 30.1 in NW 2 mph 3 mph 31% 0 in 821 W/m2
12:59 73.9 °F 40.5 °F 30.1 in WNW 6 mph 6 mph 30% 0 in 823 W/m2
13:04 73.9 °F 38.8 °F 30.1 in WNW 4 mph 9 mph 28% 0 in 828 W/m2
13:09 73.9 °F 40.5 °F 30.1 in ENE 0.9 mph 5 mph 30% 0 in 826 W/m2
13:14 74.1 °F 39 °F 30.1 in ENE 2.9 mph 8 mph 28% 0 in 828 W/m2
13:19 74.7 °F 40.3 °F 30.1 in WNW 4 mph 6 mph 29% 0 in 831 W/m2
13:24 74.7 °F 40.3 °F 30.1 in WNW 2.9 mph 4 mph 29% 0 in 831 W/m2
13:29 74.8 °F 41.4 °F 30.1 in NW 2 mph 5 mph 30% 0 in 830 W/m2
13:34 75 °F 40.6 °F 30.1 in NW 2.9 mph 8 mph 29% 0 in 831 W/m2
13:39 74.8 °F 41.4 °F 30.1 in NW 2.9 mph 3 mph 30% 0 in 828 W/m2
13:44 75 °F 42.3 °F 30.1 in ENE 0.9 mph 2 mph 31% 0 in 828 W/m2
13:49 75.4 °F 41.7 °F 30.1 in ENE 4 mph 5 mph 30% 0 in 830 W/m2
13:54 75.7 °F 42.1 °F 30.1 in NW 2.9 mph 6 mph 30% 0 in 826 W/m2
13:59 75.7 °F 43.7 °F 30.1 in West 6.9 mph 7 mph 32% 0 in 821 W/m2
14:04 75.7 °F 42.1 °F 30.1 in WNW 2.9 mph 6 mph 30% 0 in 821 W/m2
14:09 75.7 °F 43 °F 30.1 in ENE 0.9 mph 3 mph 31% 0 in 819 W/m2
14:14 75.9 °F 41.4 °F 30.1 in NNW 2.9 mph 7 mph 29% 0 in 814 W/m2
14:19 75.9 °F 43.2 °F 30.1 in WSW 0.9 mph 3 mph 31% 0 in 812 W/m2
14:24 76.3 °F 41.7 °F 30.1 in WNW 2 mph 8 mph 29% 0 in 807 W/m2
14:29 76.6 °F 44.6 °F 30.1 in Calm   2 mph 32% 0 in 803 W/m2
14:34 76.6 °F 42.8 °F 30.1 in North 2.9 mph 4 mph 30% 0 in 798 W/m2
14:39 76.6 °F 42.1 °F 30.1 in NW 4 mph 6 mph 29% 0 in 796 W/m2
14:44 76.3 °F 42.6 °F 30.1 in WSW 4 mph 8 mph 30% 0 in 789 W/m2
14:50 76.3 °F 42.6 °F 30.1 in West 4 mph 6 mph 30% 0 in 784 W/m2
14:55 76.5 °F 42.8 °F 30.1 in WSW 4 mph 10 mph 30% 0 in 782 W/m2
15:00 76.5 °F 41 °F 30.1 in WNW 4.9 mph 6 mph 28% 0 in 777 W/m2
15:05 76.3 °F 39.9 °F 30.1 in West 2 mph 3 mph 27% 0 in 772 W/m2
15:10 76.3 °F 41.7 °F 30.1 in WNW 4 mph 9 mph 29% 0 in 768 W/m2
15:15 76.6 °F 40.1 °F 30.1 in WNW 2.9 mph 6 mph 27% 0 in 759 W/m2
15:20 76.8 °F 40.3 °F 30.1 in NNW 0.9 mph 9 mph 27% 0 in 756 W/m2
15:25 77 °F 42.3 °F 30.1 in NW 2 mph 3 mph 29% 0 in 745 W/m2
15:30 77.4 °F 43.5 °F 30.1 in SW 0.9 mph 5 mph 30% 0 in 742 W/m2
15:35 77.7 °F 41 °F 30.1 in West 8.1 mph 11 mph 27% 0 in 733 W/m2
15:40 77.7 °F 42.1 °F 30.1 in WNW 2.9 mph 3 mph 28% 0 in 726 W/m2
15:45 77.5 °F 41.9 °F 30.1 in East 2.9 mph 9 mph 28% 0 in 715 W/m2
15:50 77.5 °F 43.7 °F 30.1 in NNW 4.9 mph 8 mph 30% 0 in 708 W/m2
15:55 77.7 °F 44.6 °F 30.1 in NNE 0.9 mph 3 mph 31% 0 in 696 W/m2
16:00 78.3 °F 44.2 °F 30.1 in SE 2 mph 2 mph 30% 0 in 691 W/m2
16:05 78.4 °F 44.4 °F 30.1 in NW 0.9 mph 8 mph 30% 0 in 684 W/m2
16:10 78.4 °F 44.4 °F 30.1 in WNW 6.9 mph 7 mph 30% 0 in 675 W/m2
16:15 78.4 °F 45.3 °F 30.1 in SW 2.9 mph 6 mph 31% 0 in 664 W/m2
16:20 78.4 °F 44.4 °F 30.1 in West 2 mph 8 mph 30% 0 in 656 W/m2
16:25 78.4 °F 45.3 °F 30.1 in NW 4.9 mph 8 mph 31% 0 in 645 W/m2
16:30 78.3 °F 45.1 °F 30.1 in NNE 2.9 mph 7 mph 31% 0 in 635 W/m2
16:35 78.3 °F 45.1 °F 30.1 in West 4 mph 6 mph 31% 0 in 626 W/m2
16:41 78.6 °F 43.7 °F 30.1 in WNW 4.9 mph 8 mph 29% 0 in 615 W/m2
16:46 78.6 °F 44.6 °F 30.1 in NNE 0.9 mph 2 mph 30% 0 in 601 W/m2
16:51 79 °F 44.1 °F 30.1 in WNW 6 mph 8 mph 29% 0 in 591 W/m2
16:56 79.2 °F 44.2 °F 30.1 in WSW 2.9 mph 9 mph 29% 0 in 582 W/m2
17:01 79 °F 45.7 °F 30.1 in NE 2.9 mph 3 mph 31% 0 in 570 W/m2
17:06 79 °F 44.1 °F 30.1 in NNW 2.9 mph 4 mph 29% 0 in 559 W/m2
17:11 79.3 °F 43.3 °F 30.1 in WNW 4 mph 9 mph 28% 0 in 547 W/m2
17:16 79 °F 44.1 °F 30.1 in West 0.9 mph 4 mph 29% 0 in 531 W/m2
17:21 79.2 °F 45.1 °F 30.1 in WSW 4 mph 4 mph 30% 0 in 526 W/m2
17:26 79.2 °F 44.2 °F 30.1 in West 2.9 mph 3 mph 29% 0 in 510 W/m2
17:31 79.2 °F 45.1 °F 30.1 in WNW 2 mph 5 mph 30% 0 in 497 W/m2
17:36 79.3 °F 45.1 °F 30.1 in WSW 4.9 mph 6 mph 30% 0 in 483 W/m2
17:41 79.3 °F 46 °F 30.1 in NW 2.9 mph 5 mph 31% 0 in 471 W/m2
17:46 79.5 °F 45.3 °F 30.1 in West 4 mph 7 mph 30% 0 in 457 W/m2
17:51 79.3 °F 45.1 °F 30.1 in West 6 mph 8 mph 30% 0 in 446 W/m2
17:56 79.3 °F 46 °F 30.1 in NNE 4 mph 7 mph 31% 0 in 431 W/m2
18:01 79.5 °F 45.3 °F 30.1 in NNW 6 mph 6 mph 30% 0 in 420 W/m2
18:06 79.5 °F 46.2 °F 30.1 in East 2 mph 5 mph 31% 0 in 411 W/m2
18:12 79.7 °F 45.5 °F 30.1 in West 6 mph 6 mph 30% 0 in 396 W/m2
18:17 79.5 °F 45.3 °F 30.1 in West 4 mph 10 mph 30% 0 in 383 W/m2
18:22 79.3 °F 45.1 °F 30.1 in North 4 mph 6 mph 30% 0 in 369 W/m2
18:27 79.3 °F 46 °F 30.1 in NE 2 mph 10 mph 31% 0 in 359 W/m2
18:32 79.3 °F 46 °F 30.1 in West 4 mph 7 mph 31% 0 in 346 W/m2
18:37 79.2 °F 45.1 °F 30.1 in WNW 4 mph 9 mph 30% 0 in 332 W/m2
18:42 78.8 °F 44.8 °F 30.1 in West 4 mph 12 mph 30% 0 in 320 W/m2
18:47 78.4 °F 45.3 °F 30.1 in ENE 2 mph 3 mph 31% 0 in 308 W/m2
18:52 78.6 °F 45.5 °F 30.1 in North 4 mph 12 mph 31% 0 in 297 W/m2
18:57 79 °F 45.7 °F 30.1 in ENE 4.9 mph 10 mph 31% 0 in 279 W/m2
19:02 79 °F 45 °F 30.1 in NW 2 mph 5 mph 30% 0 in 267 W/m2
19:07 78.8 °F 45.7 °F 30.1 in WNW 0.9 mph 10 mph 31% 0 in 253 W/m2
19:12 78.4 °F 45.3 °F 30.1 in WNW 2.9 mph 6 mph 31% 0 in 241 W/m2
19:17 78.4 °F 45.3 °F 30.1 in NW 2 mph 10 mph 31% 0 in 230 W/m2
19:22 78.3 °F 45.1 °F 30.1 in West 4 mph 4 mph 31% 0 in 214 W/m2
19:27 78.1 °F 45 °F 30.1 in WNW 8.1 mph 8 mph 31% 0 in 204 W/m2
19:32 77.7 °F 45.5 °F 30.1 in NNW 2.9 mph 7 mph 32% 0 in 188 W/m2
19:37 77.7 °F 44.6 °F 30.1 in West 2.9 mph 8 mph 31% 0 in 171 W/m2
19:42 77.5 °F 44.6 °F 30.1 in NNW 6 mph 11 mph 31% 0 in 156 W/m2
19:47 77.5 °F 45.3 °F 30.1 in WSW 2 mph 8 mph 32% 0 in 144 W/m2
19:52 77.4 °F 46 °F 30.1 in West 2 mph 9 mph 33% 0 in 128 W/m2
19:57 77.4 °F 46 °F 30.1 in West 0.9 mph 3 mph 33% 0 in 116 W/m2
20:02 77.4 °F 46.8 °F 30.1 in WNW 6 mph 9 mph 34% 0 in 104 W/m2
20:07 77 °F 48 °F 30.1 in WNW 2.9 mph 4 mph 36% 0 in 93 W/m2
20:12 76.8 °F 48.6 °F 30.1 in NW 0.9 mph 3 mph 37% 0 in 77 W/m2
20:17 76.6 °F 48.4 °F 30.1 in NNW 2 mph 6 mph 37% 0 in 69 W/m2
20:22 76.3 °F 48.7 °F 30.1 in West 4 mph 7 mph 38% 0 in 58 W/m2
20:27 75.9 °F 49.1 °F 30.1 in WNW 2.9 mph 4 mph 39% 0 in 49 W/m2
20:32 75.7 °F 49.6 °F 30.1 in WNW 0.9 mph 6 mph 40% 0 in 40 W/m2
20:37 75.4 °F 49.5 °F 30.1 in West 2.9 mph 7 mph 40% 0 in 33 W/m2
20:42 75.2 °F 49.8 °F 30.1 in West 2.9 mph 5 mph 41% 0 in 26 W/m2
20:47 74.8 °F 50.2 °F 30.1 in WNW 2 mph 4 mph 42% 0 in 21 W/m2
20:52 74.5 °F 50.5 °F 30.1 in WNW 2 mph 6 mph 43% 0 in 18 W/m2
20:57 74.1 °F 51.4 °F 30.1 in WNW 2.9 mph 5 mph 45% 0 in 14 W/m2
21:02 73.6 °F 51.4 °F 30.1 in West 2.9 mph 5 mph 46% 0 in 12 W/m2
21:07 73 °F 52.2 °F 30.1 in NW 2.9 mph 4 mph 48% 0 in 9 W/m2
21:12 72.7 °F 52.3 °F 30.1 in WNW 2.9 mph 8 mph 49% 0 in 7 W/m2
21:17 72.3 °F 52.7 °F 30.1 in WSW 2.9 mph 4 mph 50% 0 in 5 W/m2
21:22 72.1 °F 53.1 °F 30.1 in WNW 8.9 mph 9 mph 51% 0 in 0 W/m2
21:27 72 °F 52.9 °F 30.1 in WNW 0.9 mph 4 mph 51% 0 in 0 W/m2
21:32 71.8 °F 52.7 °F 30.1 in West 4 mph 7 mph 51% 0 in 0 W/m2
21:37 71.6 °F 52.5 °F 30.1 in WNW 0.9 mph 5 mph 51% 0 in 0 W/m2
21:42 71.4 °F 52.9 °F 30.1 in WNW 2 mph 6 mph 52% 0 in 0 W/m2
21:47 71.2 °F 52.7 °F 30.1 in West 4 mph 5 mph 52% 0 in 0 W/m2
21:52 70.9 °F 52.9 °F 30.1 in NW 2 mph 9 mph 53% 0 in 0 W/m2
21:57 70.7 °F 52.7 °F 30.1 in WNW 0.9 mph 4 mph 53% 0 in 0 W/m2
22:02 70.5 °F 53.1 °F 30.1 in NW 2 mph 9 mph 54% 0 in 0 W/m2
22:07 70.3 °F 52.9 °F 30.1 in North 2 mph 5 mph 54% 0 in 0 W/m2
22:12 70.2 °F 52.7 °F 30.1 in NW 2 mph 7 mph 54% 0 in 0 W/m2
22:17 70.2 °F 52.7 °F 30.1 in North 6.9 mph 7 mph 54% 0 in 0 W/m2
22:22 70 °F 53.1 °F 30.1 in NW 2.9 mph 4 mph 55% 0 in 0 W/m2
22:28 69.8 °F 52.9 °F 30.1 in WNW 2 mph 2 mph 55% 0 in 0 W/m2
22:33 69.6 °F 52.7 °F 30.1 in NNW 0.9 mph 8 mph 55% 0 in 0 W/m2
22:38 69.4 °F 52.5 °F 30.1 in NW 0.9 mph 2 mph 55% 0 in 0 W/m2
22:43 69.4 °F 53.1 °F 30.1 in West 2 mph 3 mph 56% 0 in 0 W/m2
22:48 69.3 °F 52.9 °F 30.1 in WNW 2 mph 6 mph 56% 0 in 0 W/m2
22:53 69.1 °F 53.2 °F 30.1 in NW 4 mph 5 mph 57% 0 in 0 W/m2
22:58 69.1 °F 53.2 °F 30.1 in NNE 4 mph 5 mph 57% 0 in 0 W/m2
23:03 69.1 °F 53.2 °F 30.1 in West 2 mph 5 mph 57% 0 in 0 W/m2
23:08 69.1 °F 53.2 °F 30.1 in WNW 2 mph 6 mph 57% 0 in 0 W/m2
23:13 69.1 °F 53.2 °F 30.1 in NNW 2.9 mph 5 mph 57% 0 in 0 W/m2
23:18 68.9 °F 53.1 °F 30.1 in WNW 4 mph 5 mph 57% 0 in 0 W/m2
23:23 69.1 °F 53.2 °F 30.1 in West 2.9 mph 6 mph 57% 0 in 0 W/m2
23:28 68.7 °F 53.4 °F 30.1 in WNW 2 mph 5 mph 58% 0 in 0 W/m2
23:33 68.5 °F 53.2 °F 30.1 in WNW 2 mph 6 mph 58% 0 in 0 W/m2
23:38 68.5 °F 53.2 °F 30.1 in WNW 0.9 mph 3 mph 58% 0 in 0 W/m2
23:43 68.4 °F 53.4 °F 30.1 in WNW 2 mph 6 mph 59% 0 in 0 W/m2
23:48 68.2 °F 53.2 °F 30.1 in NW 0.9 mph 2 mph 59% 0 in 0 W/m2
23:53 67.8 °F 53.4 °F 30.1 in WNW 2 mph 6 mph 60% 0 in 0 W/m2
23:58 67.8 °F 53.4 °F 30.1 in NNW 2.9 mph 5 mph 60% 0 in 0 W/m2
Juneau County Weather
Compliments of Weather Underground - 2 mb